Simultaneous Nadir Overpasses (SNOs) Predictions

Prediction of SNOs between NOAA-20 and PACE Satellite Orbit:

Table of predicted SNOs for the next 14.0 days since TLE Epoch: 5/25/2024
Index Date (NOAA-20) Time (NOAA-20) Lat,Lon (NOAA-20) SZA (NOAA-20 ) Date (PACE) Time (PACE) Lat,Lon (PACE) SZA (PACE ) Distance(km) Time Diff (sec)
1 05/26/2024 05:27:05 80.08, 58.86 61.15 05/26/2024 05:28:08 80.09, 58.78 61.13 1.50 63
2 05/26/2024 06:17:43 -79.89,-131.86 119.23 05/26/2024 06:17:12 -79.90,-131.98 119.19 2.48 31
3 05/28/2024 09:53:27 80.12, -8.15 60.88 05/28/2024 09:54:19 80.12, -8.03 60.84 2.17 52
4 05/28/2024 10:44:05 -79.93, 161.15 119.50 05/28/2024 10:43:23 -79.93, 161.23 119.49 1.51 42
5 05/30/2024 14:19:46 80.08, -74.28 60.48 05/30/2024 14:20:27 80.07, -74.20 60.45 1.64 41
6 05/30/2024 15:10:24 -79.88, 95.00 119.90 05/30/2024 15:09:31 -79.88, 95.06 119.88 1.39 53
7 06/01/2024 18:46:04 80.01,-140.16 60.07 06/01/2024 18:46:34 80.02,-140.30 60.08 2.99 30
8 06/01/2024 19:36:42 -79.81, 29.09 120.31 06/01/2024 19:35:38 -79.82, 28.96 120.26 2.87 64
9 06/03/2024 23:12:25 80.03, 153.02 59.86 06/03/2024 23:12:42 80.03, 153.08 59.84 1.24 17
10 06/04/2024 00:01:01 -74.83, -13.23 127.30 06/03/2024 23:59:48 -74.42, -15.60 127.50 83.20 73



Historial Predications of SNOs between NOAA-20 and PACE
